Date,TemperatureHighF,TemperatureAvgF,TemperatureLowF,DewpointHighF,DewpointAvgF,DewpointLowF,HumidityHigh,HumidityAvg,HumidityLow,PressureMaxIn,PressureMinIn,WindSpeedMaxMPH,WindSpeedAvgMPH,GustSpeedMaxMPH,PrecipitationSumIn
2013-6-1,87,78,68,67,65,62,89,65,46,30.03,29.90,11,5,26,0.00
2013-6-2,85,77,71,69,65,-100,84,68,50,29.92,29.80,10,6,28,0.00
2013-6-3,76,70,66,71,67,61,99,92,78,29.87,29.79,5,2,13,0.07
2013-6-4,71,65,57,62,47,40,87,53,35,30.09,29.87,8,3,22,0.00
2013-6-5,76,66,55,52,45,40,68,48,31,30.18,30.07,7,2,17,0.00
2013-6-6,71,65,58,63,54,47,98,70,43,30.11,29.94,11,5,24,0.01
2013-6-7,68,64,59,68,64,59,100,100,98,29.94,29.59,8,4,22,0.37
2013-6-8,73,66,59,65,62,59,100,87,66,30.07,29.58,9,2,24,0.00
2013-6-9,78,70,59,63,59,55,95,71,49,30.18,30.07,5,1,18,0.00
2013-6-10,71,69,65,71,67,61,100,94,79,30.13,29.78,9,3,28,0.09
2013-6-11,79,72,66,69,65,59,98,78,61,29.78,29.68,8,3,23,0.02
2013-6-12,80,73,66,62,59,55,81,64,44,29.83,29.77,6,2,22,0.00
2013-6-13,77,69,62,70,63,54,97,81,66,29.82,29.40,9,4,20,0.02
2013-6-14,74,63,55,59,54,51,92,75,46,29.91,29.49,8,3,25,0.01
2013-6-15,78,69,58,62,55,51,85,63,41,30.02,29.92,4,1,14,0.00
2013-6-16,79,70,62,67,60,52,91,72,47,29.99,29.83,9,2,24,0.01
2013-6-17,84,73,65,71,65,61,90,77,55,29.92,29.84,5,2,18,0.00
2013-6-18,78,68,63,67,62,58,86,81,70,29.90,29.79,5,1,15,0.07
2013-6-19,75,67,59,60,53,47,85,62,40,30.14,29.85,6,2,20,0.01
2013-6-20,77,66,57,59,54,51,79,66,45,30.25,30.13,7,2,19,0.00
2013-6-22,82,79,72,66,64,61,73,60,52,30.23,30.11,7,4,22,0.00
2013-6-23,83,74,64,72,66,59,87,76,53,30.18,30.04,7,3,24,0.00
2013-6-24,89,76,69,73,68,63,90,76,51,30.08,29.97,6,2,20,0.00
2013-6-25,88,75,67,71,67,62,89,76,52,30.00,29.85,5,2,21,0.02
2013-6-26,86,75,68,74,67,61,90,76,56,29.87,29.77,6,1,15,0.01
2013-6-27,85,75,69,74,68,64,89,78,64,29.82,29.56,11,3,28,0.00
2013-6-28,83,74,68,71,64,60,81,74,64,29.59,29.49,9,3,26,0.01
2013-6-29,84,78,67,69,65,60,78,65,50,29.69,29.49,6,2,18,0.00